TimeCDT,TemperatureF,Dew PointF,Humidity,Sea Level PressureIn,VisibilityMPH,Wind Direction,Wind SpeedMPH,Gust SpeedMPH,PrecipitationIn,Events,Conditions,WindDirDegrees,DateUTC
12:15 AM,73.4,64.4,73,29.78,10.0,SE,5.8,-,N/A,,Scattered Clouds,140,2012-10-22 05:15:00
12:55 AM,71.6,64.4,78,29.77,7.0,Calm,Calm,-,0.05,,Overcast,0,2012-10-22 05:55:00
1:15 AM,71.6,64.4,78,29.76,7.0,Calm,Calm,-,0.01,,Mostly Cloudy,0,2012-10-22 06:15:00
1:35 AM,69.8,64.4,83,29.76,5.0,East,6.9,-,0.01,,Mostly Cloudy,90,2012-10-22 06:35:00
1:55 AM,71.6,64.4,78,29.77,7.0,Calm,Calm,-,0.01,,Overcast,0,2012-10-22 06:55:00
2:15 AM,69.8,64.4,83,29.76,5.0,North,3.5,-,N/A,,Overcast,10,2012-10-22 07:15:00
2:35 AM,69.8,64.4,83,29.76,7.0,ENE,4.6,-,0.01,,Overcast,70,2012-10-22 07:35:00
2:55 AM,69.8,64.4,83,29.76,5.0,ENE,4.6,-,0.01,,Overcast,60,2012-10-22 07:55:00
3:15 AM,69.8,64.4,83,29.76,5.0,East,5.8,-,N/A,,Mostly Cloudy,80,2012-10-22 08:15:00
3:55 AM,69.8,64.4,83,29.74,5.0,East,4.6,-,N/A,,Overcast,80,2012-10-22 08:55:00
4:15 AM,69.8,64.4,83,29.75,7.0,East,3.5,-,N/A,,Overcast,80,2012-10-22 09:15:00
4:35 AM,69.8,64.4,83,29.75,7.0,East,6.9,-,N/A,,Overcast,90,2012-10-22 09:35:00
4:55 AM,71.6,64.4,78,29.76,7.0,East,6.9,-,N/A,,Overcast,90,2012-10-22 09:55:00
5:15 AM,71.6,64.4,78,29.76,7.0,East,6.9,-,N/A,,Overcast,100,2012-10-22 10:15:00
5:35 AM,71.6,64.4,78,29.77,7.0,ENE,5.8,-,N/A,,Overcast,70,2012-10-22 10:35:00
5:55 AM,71.6,64.4,78,29.77,7.0,East,10.4,-,N/A,,Overcast,90,2012-10-22 10:55:00
6:15 AM,71.6,64.4,78,29.78,7.0,East,9.2,-,N/A,,Overcast,100,2012-10-22 11:15:00
6:35 AM,69.8,62.6,78,29.78,10.0,East,12.7,-,N/A,,Overcast,100,2012-10-22 11:35:00
6:55 AM,69.8,60.8,73,29.78,10.0,East,9.2,-,N/A,,Overcast,100,2012-10-22 11:55:00
7:15 AM,69.8,60.8,73,29.78,10.0,ESE,6.9,-,N/A,,Overcast,120,2012-10-22 12:15:00
7:35 AM,69.8,60.8,73,29.78,10.0,ESE,11.5,-,N/A,,Overcast,120,2012-10-22 12:35:00
7:55 AM,69.8,62.6,78,29.77,10.0,ESE,10.4,-,N/A,,Overcast,110,2012-10-22 12:55:00
8:15 AM,69.8,62.6,78,29.78,10.0,ESE,9.2,-,N/A,,Overcast,120,2012-10-22 13:15:00
8:35 AM,69.8,64.4,83,29.78,7.0,ESE,6.9,-,N/A,,Overcast,120,2012-10-22 13:35:00
8:55 AM,71.6,64.4,78,29.78,7.0,ESE,6.9,-,N/A,,Overcast,120,2012-10-22 13:55:00
9:15 AM,71.6,64.4,78,29.79,5.0,ESE,6.9,-,N/A,,Overcast,120,2012-10-22 14:15:00
9:35 AM,71.6,64.4,78,29.79,5.0,ESE,9.2,-,N/A,,Overcast,120,2012-10-22 14:35:00
9:55 AM,71.6,66.2,83,29.79,5.0,ESE,10.4,-,N/A,,Overcast,120,2012-10-22 14:55:00
10:15 AM,73.4,66.2,78,29.79,5.0,SE,10.4,-,N/A,,Overcast,130,2012-10-22 15:15:00
10:35 AM,73.4,66.2,78,29.79,7.0,SE,8.1,-,N/A,,Mostly Cloudy,130,2012-10-22 15:35:00
10:55 AM,75.2,66.2,73,29.79,7.0,SE,8.1,-,N/A,,Scattered Clouds,140,2012-10-22 15:55:00
11:15 AM,77.0,68.0,74,29.78,7.0,SSE,6.9,-,N/A,,Mostly Cloudy,150,2012-10-22 16:15:00
11:35 AM,77.0,68.0,74,29.77,10.0,SE,6.9,-,N/A,,Scattered Clouds,140,2012-10-22 16:35:00
11:55 AM,78.8,68.0,69,29.77,10.0,SSE,8.1,-,N/A,,Clear,160,2012-10-22 16:55:00
12:15 PM,78.8,68.0,69,29.77,10.0,SSE,6.9,-,N/A,,Clear,160,2012-10-22 17:15:00
12:35 PM,80.6,68.0,65,29.76,10.0,South,8.1,-,N/A,,Scattered Clouds,190,2012-10-22 17:35:00
12:55 PM,80.6,68.0,65,29.76,10.0,South,5.8,-,N/A,,Scattered Clouds,190,2012-10-22 17:55:00
1:15 PM,80.6,66.2,61,29.76,10.0,South,5.8,-,N/A,,Mostly Cloudy,180,2012-10-22 18:15:00
1:35 PM,80.6,66.2,61,29.76,10.0,SSE,6.9,-,N/A,,Mostly Cloudy,150,2012-10-22 18:35:00
1:55 PM,80.6,66.2,61,29.75,10.0,Calm,Calm,-,N/A,,Mostly Cloudy,0,2012-10-22 18:55:00
2:15 PM,84.2,64.4,51,29.75,10.0,South,12.7,-,N/A,,Mostly Cloudy,170,2012-10-22 19:15:00
2:35 PM,82.4,64.4,54,29.74,10.0,SSE,12.7,-,N/A,,Mostly Cloudy,160,2012-10-22 19:35:00
2:55 PM,82.4,64.4,54,29.74,10.0,South,4.6,-,N/A,,Mostly Cloudy,170,2012-10-22 19:55:00
3:15 PM,82.4,64.4,54,29.74,10.0,South,9.2,-,N/A,,Mostly Cloudy,180,2012-10-22 20:15:00
3:35 PM,84.2,62.6,48,29.74,10.0,South,8.1,-,N/A,,Scattered Clouds,190,2012-10-22 20:35:00
3:55 PM,84.2,62.6,48,29.73,10.0,South,8.1,-,N/A,,Scattered Clouds,170,2012-10-22 20:55:00
4:15 PM,84.2,62.6,48,29.73,10.0,South,4.6,-,N/A,,Scattered Clouds,180,2012-10-22 21:15:00
4:35 PM,84.2,62.6,48,29.73,10.0,South,9.2,-,N/A,,Scattered Clouds,170,2012-10-22 21:35:00
4:55 PM,82.4,62.6,51,29.74,10.0,SSW,9.2,-,N/A,,Scattered Clouds,200,2012-10-22 21:55:00
5:15 PM,82.4,62.6,51,29.74,10.0,South,6.9,-,N/A,,Mostly Cloudy,180,2012-10-22 22:15:00
5:35 PM,82.4,62.6,51,29.74,10.0,South,4.6,-,N/A,,Scattered Clouds,180,2012-10-22 22:35:00
5:55 PM,80.6,62.6,54,29.74,10.0,South,6.9,-,N/A,,Clear,180,2012-10-22 22:55:00
6:15 PM,80.6,55.4,42,29.75,10.0,SSW,17.3,-,N/A,,Clear,210,2012-10-22 23:15:00
6:35 PM,77.0,57.2,50,29.76,10.0,SSW,18.4,24.2,N/A,,Clear,200,2012-10-22 23:35:00
6:55 PM,73.4,60.8,65,29.76,10.0,SSW,13.8,-,N/A,,Scattered Clouds,200,2012-10-22 23:55:00
7:15 PM,71.6,60.8,69,29.77,10.0,SW,11.5,-,N/A,,Clear,220,2012-10-23 00:15:00
7:35 PM,69.8,62.6,78,29.78,7.0,WSW,12.7,-,N/A,,Scattered Clouds,250,2012-10-23 00:35:00
7:55 PM,69.8,62.6,78,29.78,5.0,WSW,10.4,-,N/A,,Scattered Clouds,250,2012-10-23 00:55:00
8:55 PM,68.0,60.8,78,29.80,4.0,WSW,6.9,-,N/A,,Haze,250,2012-10-23 01:55:00
9:15 PM,66.2,60.8,83,29.81,4.0,WSW,8.1,-,N/A,,Haze,250,2012-10-23 02:15:00
9:35 PM,66.2,60.8,83,29.82,4.0,WSW,6.9,-,N/A,,Haze,240,2012-10-23 02:35:00
9:55 PM,66.2,59.0,78,29.81,4.0,WSW,5.8,-,N/A,,Haze,250,2012-10-23 02:55:00
10:15 PM,64.4,57.2,77,29.82,4.0,SW,4.6,-,N/A,,Haze,230,2012-10-23 03:15:00
10:35 PM,64.4,57.2,77,29.81,4.0,WSW,5.8,-,N/A,,Haze,240,2012-10-23 03:35:00
10:55 PM,62.6,57.2,82,29.81,4.0,SSW,5.8,-,N/A,,Haze,210,2012-10-23 03:55:00
11:15 PM,62.6,55.4,77,29.80,4.0,SSW,5.8,-,N/A,,Haze,200,2012-10-23 04:15:00
11:35 PM,62.6,57.2,82,29.79,4.0,SSW,4.6,-,N/A,,Haze,210,2012-10-23 04:35:00
11:55 PM,62.6,57.2,82,29.80,4.0,South,4.6,-,N/A,,Haze,190,2012-10-23 04:55:00